Home   Weather   Regina   Past weeks

Flag for Canada Past Weather in Regina, Saskatchewan, Canada — Yesterday and Last 2 Weeks

34 °F


Feels Like: 29 °F
Forecast: 32 / 43 °F
Wind: 6 mph from West

Location: Regina Weather Station

Current Time: Oct 21, 2016 at 9:46:45 PM

Latest Report: Oct 21, 2016 at 9:00 PM

Visibility: 15 mi

Pressure: 29.97 "Hg (27.89 "Hg at 577m altitude)

Humidity: 87%

Dew Point: 30 °F

Location of ReginaLocation

Past Weather in Regina — Graph


Regina Temperature Yesterday

Maximum temperature yesterday: 54 °F (at 3:00 PM)
Minimum temperature yesterday: 25 °F (at 5:00 AM)
Average temperature yesterday: 39 °F

High & Low Weather Summary for the Past Weeks

High61 °F (Oct 9, 3:00 PM)100% (Oct 7, 12:00 AM)30.40 "Hg (Oct 7, 12:00 AM)
Low19 °F (Oct 13, 4:00 AM)44% (Oct 21, 3:00 PM)29.30 "Hg (Oct 16, 8:00 PM)
Average37 °F81%29.98 "Hg
* Reported Oct 6 8:00 PM — Oct 21 8:00 PM, Regina, Weather by CustomWeather, © 2016

Note: Actual official high and low records may vary slightly from our data, if they occured in-between our weather recording intervals... More about our weather records


Regina Weather History for the Previous 24 Hours

Scroll right to see more
Time TempWeatherWind HumidityBarometerVisibility
8:00 PM
Fri, Oct 21
39 °FClear.7 mph75%29.97 "Hg15 mi
7:00 PM43 °FPassing clouds.7 mph71%29.96 "Hg15 mi
6:00 PM45 °FPassing clouds.8 mph71%29.96 "Hg15 mi
5:00 PM55 °FPassing clouds.9 mph51%29.95 "Hg15 mi
4:00 PM57 °FPassing clouds.12 mph44%29.92 "Hg15 mi
3:00 PM57 °FPassing clouds.14 mph44%29.92 "Hg15 mi
2:00 PM55 °FPassing clouds.8 mph47%29.91 "Hg15 mi
1:00 PM55 °FPassing clouds.10 mph51%29.90 "Hg15 mi
12:00 PM52 °FPassing clouds.16 mph62%29.89 "Hg15 mi
11:00 AM48 °FPassing clouds.15 mph71%29.89 "Hg15 mi
10:00 AM46 °FPassing clouds.17 mph82%29.86 "Hg15 mi
9:00 AM43 °FPassing clouds.13 mph87%29.83 "Hg15 mi
8:00 AM39 °FSprinkles. Partly sunny.9 mph93%29.78 "Hg15 mi
7:00 AM39 °FPassing clouds.10 mph93%29.77 "Hg15 mi
6:00 AM39 °FPassing clouds.9 mph93%29.76 "Hg15 mi
5:00 AM39 °FPassing clouds.10 mph93%29.76 "Hg15 mi
4:00 AM41 °FPassing clouds.9 mph93%29.77 "Hg15 mi
3:00 AM43 °FOvercast.14 mph87%29.78 "Hg15 mi
2:00 AM41 °FLight rain. Overcast.15 mph93%29.83 "Hg12 mi
1:00 AM43 °FLight rain. Overcast.14 mph81%29.84 "Hg15 mi
12:00 AM41 °FOvercast.14 mph81%29.86 "Hg15 mi
11:00 PM
Thu, Oct 20
41 °FOvercast.17 mph81%29.90 "Hg15 mi
10:00 PM41 °FPassing clouds.13 mph81%29.94 "Hg15 mi
9:00 PM43 °FMostly cloudy.14 mph81%29.98 "Hg15 mi
Weather by CustomWeather, © 2016

See weather overviewHow to use our weather pages